Christchurch, New Zealand

2:08 PM NZST on April 27, 2018 (GMT +1200)
Christchurch International

Weather History for NZCH - May, 2014

Change the Weather History Date:

Wednesday, May 7, 2014

  Actual Average Record
Temperature  
Mean Temperature 52 °F -  
Max Temperature 64 °F 55 °F 77 °F (2015)
Min Temperature 41 °F 37 °F 28 °F (2008)
Degree Days  
Heating Degree Days 12    
Growing Degree Days 2 (Base 50)    
Moisture  
Dew Point 44 °F    
Average Humidity 73    
Maximum Humidity 100    
Minimum Humidity 52    
Precipitation  
Precipitation 0.00 in - - ()
Sea Level Pressure  
Sea Level Pressure 29.60 in    
Wind  
Wind Speed 7 mph ()    
Max Wind Speed 15 mph    
Max Gust Speed -    
Visibility 6.2 miles    
Events Rain    
Averages and records for this station are not official NWS values.
T = Trace of Precipitation, MM = Missing Value Source: Averaged Metar Reports

Daily Weather History Graph

Daily Weather History Graph

Search for Another Location

Airport or City:

Astronomy

May. 07, 2014 Rise Set
Actual Time 7:27 AM NZST 5:24 PM NZST
Civil Twilight 6:57 AM NZST 5:55 PM NZST
Nautical Twilight 6:22 AM NZST 6:29 PM NZST
Astronomical Twilight 5:49 AM NZST 7:02 PM NZST
Moon 1:20 PM NZST (5/7) No Moon Set
Length of Visible Light 10h 58m
Length of Day
9h 57m
Waxing Crescent, 49% of the Moon is Illuminated
May 7
Waxing Crescent
May 7
First Quarter
May 15
Full
May 22
Last Quarter
May 29
New

Hourly Weather History & Observations

Time (NZST) Temp. Windchill Dew Point Humidity Pressure Visibility Wind Dir Wind Speed Gust Speed Precip Events Conditions
12:00 AM 57.2 °F - 41.0 °F 55% 29.68 in 6.2 mi North 12.7 mph - N/A   Unknown
12:30 AM 57.2 °F - 41.0 °F 55% 29.68 in 6.2 mi North 11.5 mph - N/A   Unknown
1:00 AM 57.2 °F - 42.8 °F 59% 29.68 in 6.2 mi North 10.4 mph - N/A   Unknown
2:30 AM 53.6 °F - 42.8 °F 67% 29.65 in 6.2 mi NNE 10.4 mph - N/A   Unknown
3:00 AM 53.6 °F - 42.8 °F 67% 29.65 in 6.2 mi NNE 10.4 mph - N/A   Unknown
3:30 AM 53.6 °F - 42.8 °F 67% 29.65 in 6.2 mi NE 11.5 mph - N/A   Unknown
4:00 AM 53.6 °F - 42.8 °F 67% 29.65 in 6.2 mi North 4.6 mph - N/A   Unknown
4:30 AM 53.6 °F - 42.8 °F 67% 29.65 in 6.2 mi East 4.6 mph - N/A   Unknown
5:00 AM 53.6 °F - 42.8 °F 67% 29.65 in 6.2 mi SW 4.6 mph - N/A   Unknown
5:30 AM 50.0 °F - 42.8 °F 76% 29.62 in 6.2 mi SW 6.9 mph - N/A   Partly Cloudy
6:00 AM 46.4 °F 42.9 °F 42.8 °F 87% 29.62 in 6.2 mi SSW 6.9 mph - N/A   Unknown
6:30 AM 44.6 °F 42.2 °F 42.8 °F 93% 29.62 in 6.2 mi SSW 4.6 mph - N/A   Unknown
7:00 AM 44.6 °F 42.2 °F 42.8 °F 93% 29.62 in 6.2 mi SW 4.6 mph - N/A   Unknown
7:30 AM 44.6 °F - 42.8 °F 93% 29.62 in 6.2 mi SSW 1.2 mph - N/A   Unknown
8:30 AM 42.8 °F 41.1 °F 41.0 °F 93% 29.62 in 6.2 mi SW 3.5 mph - N/A   Unknown
9:00 AM 44.6 °F - 42.8 °F 93% 29.62 in 6.2 mi NE 2.3 mph - N/A   Unknown
9:30 AM 55.4 °F - 46.4 °F 72% 29.62 in 6.2 mi NE 3.5 mph - N/A   Unknown
10:00 AM 59.0 °F - 48.2 °F 67% 29.59 in 6.2 mi North 10.4 mph - N/A   Unknown
10:30 AM 62.6 °F - 46.4 °F 55% 29.59 in 6.2 mi North 13.8 mph - N/A   Unknown
11:00 AM 64.4 °F - 46.4 °F 52% 29.59 in 6.2 mi North 15.0 mph - N/A   Unknown
11:30 AM 62.6 °F - 46.4 °F 55% 29.59 in 6.2 mi North 9.2 mph - N/A   Unknown
12:00 PM 64.4 °F - 46.4 °F 52% 29.56 in 6.2 mi North 12.7 mph - N/A   Unknown
12:30 PM 62.6 °F - 44.6 °F 52% 29.56 in 6.2 mi North 13.8 mph - N/A   Mostly Cloudy
1:00 PM 64.4 °F - 46.4 °F 52% 29.53 in 6.2 mi North 11.5 mph - N/A   Mostly Cloudy
1:30 PM 64.4 °F - 46.4 °F 52% 29.53 in 6.2 mi North 10.4 mph - N/A   Scattered Clouds
2:00 PM 62.6 °F - 46.4 °F 55% 29.53 in 6.2 mi NNW 11.5 mph - N/A   Light Drizzle
2:30 PM 62.6 °F - 46.4 °F 55% 29.53 in 6.2 mi North 8.1 mph - N/A   Overcast
3:00 PM 62.6 °F - 48.2 °F 59% 29.50 in 6.2 mi North 12.7 mph - N/A   Partly Cloudy
3:30 PM 60.8 °F - 48.2 °F 63% 29.53 in 6.2 mi North 6.9 mph - N/A   Partly Cloudy
4:00 PM 60.8 °F - 48.2 °F 63% 29.50 in 6.2 mi NE 8.1 mph - N/A   Partly Cloudy
4:30 PM 62.6 °F - 46.4 °F 55% 29.53 in 6.2 mi North 10.4 mph - N/A   Partly Cloudy
5:00 PM 60.8 °F - 46.4 °F 59% 29.53 in 6.2 mi North 11.5 mph - N/A   Partly Cloudy
5:30 PM 59.0 °F - 46.4 °F 63% 29.56 in 6.2 mi NNW 6.9 mph - N/A Rain Light Rain
6:00 PM 55.4 °F - 48.2 °F 77% 29.56 in 6.2 mi WNW 3.5 mph - N/A Rain Light Rain
6:30 PM 51.8 °F - 48.2 °F 88% 29.56 in 6.2 mi SE 1.2 mph - N/A   Unknown
7:00 PM 50.0 °F - 46.4 °F 87% 29.56 in 6.2 mi North 2.3 mph - N/A   Unknown
7:30 PM 46.4 °F 45.2 °F 42.8 °F 87% 29.59 in 6.2 mi WNW 3.5 mph - N/A   Unknown
8:00 PM 44.6 °F - 42.8 °F 93% 29.59 in 6.2 mi NW 2.3 mph - N/A   Unknown
8:30 PM 46.4 °F - 44.6 °F 93% 29.62 in 6.2 mi Calm Calm - N/A   Unknown
9:00 PM 44.6 °F 42.2 °F 42.8 °F 93% 29.62 in 6.2 mi SSW 4.6 mph - N/A   Unknown
9:30 PM 46.4 °F 44.3 °F 42.8 °F 87% 29.62 in 6.2 mi WSW 4.6 mph - N/A   Unknown
10:00 PM 42.8 °F 39.3 °F 41.0 °F 93% 29.65 in 6.2 mi South 5.8 mph - N/A   Unknown
10:30 PM 41.0 °F 39.0 °F 41.0 °F 100% 29.65 in 6.2 mi South 3.5 mph - N/A   Unknown
11:00 PM 44.6 °F 43.1 °F 42.8 °F 93% 29.65 in 6.2 mi SW 3.5 mph - N/A   Unknown
11:30 PM 44.6 °F 40.2 °F 42.8 °F 93% 29.68 in 6.2 mi SW 8.1 mph - N/A   Unknown